GW6083 Weather Reports


time (UTC)temp
F
wind
direction
speed
knots
gust
knots
rain 1hr
in
rain 24hr
in
rain mn
in
humidity
%
barometer
mb
20260507105142 48 190 0.0 0.9 0.00 0.03 0.03 85 1003.7
20260507104640 48 182 0.0 0.0 0.00 0.03 0.03 85 1003.6
20260507104136 48 159 0.9 1.7 0.00 0.03 0.03 84 1003.6
20260507103632 48 205 0.0 0.9 0.00 0.03 0.03 85 1003.3
20260507103130 48 208 0.9 0.9 0.00 0.03 0.03 85 1003.5
20260507102626 48 218 0.9 0.9 0.00 0.03 0.03 85 1003.4
20260507102122 48 255 0.0 0.9 0.00 0.03 0.03 85 1003.4
20260507101618 48 210 0.0 0.9 0.00 0.03 0.03 85 1003.7
20260507101114 48 214 0.0 0.0 0.00 0.03 0.03 86 1003.2
20260507100612 48 203 1.7 2.6 0.00 0.03 0.03 86 1003.5
20260507100110 48 202 0.0 0.9 0.00 0.03 0.03 86 1003.4
20260507095607 48 211 0.9 0.9 0.00 0.03 0.03 87 1003.6
20260507095104 48 252 0.9 0.9 0.00 0.03 0.03 88 1003.5
20260507094600 48 283 1.7 1.7 0.00 0.03 0.03 88 1003.6
20260507094057 48 269 0.0 0.9 0.00 0.03 0.03 89 1003.3
20260507093554 48 214 0.0 0.9 0.00 0.03 0.03 89 1003.5
20260507093053 48 214 0.0 0.0 0.00 0.03 0.03 89 1003.3
20260507092549 48 209 0.0 0.0 0.00 0.03 0.03 90 1003.7
20260507092046 48 202 0.0 0.9 0.00 0.03 0.03 90 1003.6
20260507091543 48 206 0.0 0.0 0.00 0.03 0.03 91 1003.6
20260507091039 48 217 0.9 0.9 0.00 0.03 0.03 91 1003.8
20260507090534 48 203 0.0 0.9 0.00 0.03 0.03 91 1003.4
20260507090032 48 178 0.9 0.9 0.00 0.03 0.03 91 1003.6
20260507085529 48 210 0.0 0.9 0.00 0.03 0.03 91 1003.3
20260507085025 48 218 0.9 0.9 0.00 0.03 0.03 91 1003.4
20260507084522 48 205 0.0 0.0 0.00 0.03 0.03 90 1003.6
20260507084019 48 230 0.9 0.9 0.05 0.03 0.03 90 1003.3
20260507083515 49 218 0.0 0.9 0.05 0.03 0.03 90 1003.1
20260507083013 49 256 0.9 1.7 0.00 0.02 0.02 90 1003.2
20260507082509 49 225 0.9 1.7 0.00 0.02 0.02 89 1003.1
20260507082005 49 204 0.0 0.9 0.00 0.02 0.02 89 1003.1
20260507081501 49 211 0.9 0.9 0.00 0.02 0.02 89 1003.3
20260507080958 50 206 0.9 0.9 0.00 0.02 0.02 88 1002.9
20260507080454 50 254 0.9 1.7 0.07 0.02 0.02 87 1003.3
20260507075949 50 332 1.7 2.6 0.00 0.01 0.01 86 1003.1
20260507075446 50 202 0.9 0.9 0.00 0.01 0.01 86 1003.3
20260507074943 50 236 1.7 1.7 0.00 0.01 0.01 86 1003.2
20260507074440 50 244 1.7 1.7 0.00 0.01 0.01 87 1003.4
20260507073938 50 208 0.9 0.9 0.00 0.01 0.01 87 1003.2
20260507073434 50 219 0.0 0.9 0.00 0.01 0.01 87 1002.7
20260507072930 50 200 2.6 4.3 0.00 0.01 0.01 87 1002.9
20260507072428 50 234 0.9 0.9 0.00 0.01 0.01 87 1002.9
20260507071926 50 252 2.6 2.6 0.00 0.01 0.01 87 1002.5
20260507071422 50 228 0.9 0.9 0.00 0.01 0.01 88 1002.7
20260507070919 50 213 0.9 0.9 0.00 0.01 0.01 88 1003.0
20260507070416 50 218 0.9 0.9 0.00 0.01 0.01 88 1002.8
20260507065913 50 186 0.0 0.9 0.00 0.01 0.01 89 1002.9
20260507065410 50 218 0.9 0.9 0.00 0.01 0.01 90 1002.5
20260507064907 50 215 0.9 1.7 0.00 0.01 0.01 91 1002.6
20260507064405 50 258 1.7 1.7 0.00 0.01 0.01 93 1002.6
20260507063902 50 197 0.0 0.9 0.00 0.01 0.01 94 1002.8
20260507063359 50 209 0.9 0.9 0.00 0.01 0.01 95 1002.6
20260507062856 50 212 1.7 1.7 0.00 0.01 0.01 96 1002.4
20260507062353 50 217 0.9 0.9 0.00 0.01 0.01 97 1002.3
20260507061851 50 221 1.7 1.7 0.00 0.01 0.01 97 1002.4
20260507061348 50 210 0.0 0.0 0.00 0.01 0.01 97 1002.4
20260507060847 50 212 0.0 0.9 0.00 0.01 0.01 97 1002.3
20260507060343 50 215 0.0 0.0 0.00 0.01 0.01 97 1002.5
20260507055840 50 222 1.7 1.7 0.00 0.01 0.01 97 1002.8
20260507055335 50 218 0.9 1.7 0.00 0.01 0.01 97 1002.6
20260507054832 50 266 1.7 1.7 0.00 0.01 0.01 97 1002.7
20260507054328 51 215 0.0 0.0 0.00 0.01 0.01 98 1002.7
20260507053826 51 217 0.9 1.7 0.00 0.01 0.01 98 1002.9
20260507053323 51 211 0.9 0.9 0.00 0.01 0.01 98 1002.9
20260507052822 51 261 0.9 0.9 0.00 0.01 0.01 98 1002.8
20260507052318 51 195 0.0 0.0 0.00 0.01 0.01 98 1003.1
20260507051816 51 207 0.0 0.9 0.00 0.01 0.01 98 1003.1
20260507051313 51 211 0.9 0.9 0.00 0.01 0.01 98 1003.1
20260507050810 52 206 0.9 1.7 0.00 0.01 0.01 98 1002.8
20260507050306 52 229 0.9 1.7 0.00 0.01 0.01 98 1002.9
20260507045803 52 236 0.0 0.9 0.00 0.01 0.01 98 1002.8
20260507045259 52 204 0.0 0.0 0.00 0.01 0.01 98 1002.8
20260507044757 52 228 0.9 0.9 0.00 0.01 0.01 98 1002.8
20260507044253 52 216 0.0 0.0 0.00 0.01 0.01 98 1002.7
20260507043749 52 194 0.9 1.7 0.00 0.01 0.01 98 1002.9
20260507043246 52 218 0.0 0.9 0.00 0.01 0.01 98 1002.7
20260507042742 52 216 0.9 0.9 0.00 0.01 0.01 98 1002.6
20260507042237 52 266 1.7 1.7 0.00 0.01 0.01 99 1003.0
20260507041736 52 188 0.0 0.0 0.05 0.01 0.01 99 1003.0
20260507041232 53 217 0.9 0.9 0.05 0.01 0.01 99 1002.8
20260507040729 53 211 0.9 0.9 0.00 0.00 0.00 99 1002.9
20260507040225 53 231 2.6 4.3 0.00 0.00 0.00 99 1002.8
20260507035721 54 348 1.7 5.2 0.00 0.33 0.33 99 1002.6
20260507035217 55 333 1.7 1.7 0.00 0.33 0.33 99 1002.5
20260507034714 56 203 0.0 0.0 0.00 0.33 0.33 99 1002.2
20260507034211 56 190 0.9 1.7 0.00 0.33 0.33 99 1002.0
20260507033710 57 217 0.9 0.9 0.00 0.33 0.33 99 1001.9
20260507033207 57 239 1.7 2.6 0.00 0.33 0.33 99 1001.8
20260507032704 58 206 2.6 2.6 0.00 0.33 0.33 99 1001.7
20260507032159 59 202 0.0 0.9 0.00 0.33 0.33 99 1001.6
20260507031657 59 226 0.9 0.9 0.00 0.33 0.33 99 1001.6
20260507031153 59 229 1.7 2.6 0.00 0.33 0.33 99 1001.6
20260507030650 59 217 0.0 0.9 0.00 0.33 0.33 99 1001.7
20260507030148 59 217 0.0 0.9 0.00 0.33 0.33 99 1001.6
20260507025645 59 213 0.9 0.9 0.00 0.33 0.33 99 1001.3
20260507025142 59 213 2.6 2.6 0.00 0.33 0.33 99 1001.5
20260507024640 59 220 0.9 0.9 0.00 0.33 0.33 99 1001.3
20260507024137 59 166 1.7 2.6 0.00 0.33 0.33 99 1001.3
20260507023632 59 243 4.3 7.0 0.00 0.33 0.33 99 1001.3
20260507023130 59 209 0.9 1.7 0.00 0.33 0.33 99 1001.5
20260507022627 59 219 0.9 1.7 0.00 0.33 0.33 99 1001.2
20260507022122 59 217 2.6 2.6 0.00 0.33 0.33 99 1001.1
20260507021619 59 219 1.7 1.7 0.00 0.33 0.33 99 1001.3
20260507021115 59 203 1.7 4.3 0.00 0.33 0.33 99 1001.0
20260507020613 59 209 0.9 0.9 0.00 0.33 0.33 99 1001.3
20260507020109 59 213 4.3 5.2 0.00 0.33 0.33 99 1001.3
20260507015607 59 204 0.0 0.0 0.00 0.33 0.33 99 1001.6
20260507015104 59 208 2.6 4.3 0.00 0.33 0.33 99 1001.7
20260507014601 59 198 0.9 0.9 0.00 0.33 0.33 99 1001.4
20260507014056 59 211 0.9 0.9 0.00 0.33 0.33 99 1001.5
20260507013553 59 203 0.9 0.9 0.00 0.33 0.33 99 1001.3
20260507013051 59 216 0.0 0.0 0.00 0.33 0.33 99 1001.4
20260507012548 59 191 1.7 1.7 0.00 0.33 0.33 99 1001.5
20260507012044 59 215 1.7 2.6 0.00 0.33 0.33 99 1001.4
20260507011542 59 190 0.9 1.7 0.00 0.33 0.33 99 1001.6
20260507011038 59 213 1.7 1.7 0.00 0.33 0.33 99 1001.5
20260507010532 59 221 0.9 0.9 0.00 0.33 0.33 99 1001.7
20260507010029 59 207 0.0 0.0 0.00 0.33 0.33 99 1001.7
20260507005526 59 215 0.9 0.9 0.00 0.33 0.33 99 1001.6
20260507005023 59 222 4.3 6.1 0.00 0.33 0.33 99 1001.7
20260507004520 59 210 3.5 4.3 0.00 0.33 0.33 99 1001.5
20260507004017 59 221 2.6 4.3 0.00 0.33 0.33 99 1001.2
20260507003512 59 223 4.3 5.2 0.00 0.33 0.33 99 1001.5
20260507003008 59 161 2.6 2.6 0.00 0.33 0.33 99 1001.7
20260507002504 59 209 0.0 0.9 0.00 0.33 0.33 99 1001.4
20260507002001 59 223 0.9 0.9 0.00 0.33 0.33 99 1001.5
20260507001457 59 223 4.3 6.1 0.00 0.33 0.33 99 1001.5
20260507000955 59 181 0.9 1.7 0.00 0.33 0.33 99 1001.5
20260507000450 59 221 2.6 2.6 0.00 0.33 0.33 99 1001.2
20260506235946 59 197 0.0 0.0 0.07 0.33 0.33 99 1001.1
20260506235444 59 199 2.6 2.6 0.07 0.33 0.33 99 1001.4
20260506234939 59 181 0.9 0.9 0.00 0.32 0.32 99 1001.2
20260506234437 59 198 0.0 0.0 0.00 0.32 0.32 99 1001.2
20260506233934 59 226 0.0 0.9 0.00 0.32 0.32 99 1001.2
20260506233431 59 212 0.9 0.9 0.05 0.32 0.32 99 1001.4
20260506232927 59 197 0.0 0.9 0.19 0.32 0.32 99 1001.3
20260506232424 59 205 0.0 0.0 0.19 0.31 0.31 99 1001.3
20260506231919 59 176 0.9 0.9 0.05 0.29 0.29 99 1001.4
20260506231417 59 194 0.9 0.9 0.07 0.28 0.28 99 1001.2
20260506230914 59 203 0.0 0.9 0.12 0.28 0.28 99 1001.5
20260506230411 59 197 0.9 1.7 0.05 0.27 0.27 99 1001.7
20260506225907 59 162 0.9 0.9 0.07 0.26 0.26 99 1001.6
20260506225405 60 212 0.9 0.9 0.12 0.26 0.26 99 1001.4
20260506224901 60 171 1.7 1.7 0.12 0.25 0.25 99 1001.7
20260506224359 60 175 0.0 0.9 0.12 0.24 0.24 99 1001.4
20260506223855 60 218 2.6 2.6 0.17 0.23 0.23 99 1001.6
20260506223350 60 193 0.0 0.9 0.12 0.22 0.22 99 1001.6
20260506222848 60 202 0.0 0.0 0.07 0.20 0.20 98 1001.9
20260506222343 60 239 1.7 2.6 0.00 0.19 0.19 98 1001.6
20260506221841 60 230 4.3 5.2 0.05 0.19 0.19 98 1001.4
20260506221339 60 183 0.9 1.7 0.05 0.19 0.19 98 1001.6
20260506220836 60 211 3.5 5.2 0.00 0.18 0.18 98 1001.8
20260506220331 60 196 0.0 0.9 0.00 0.18 0.18 98 1001.9
20260506215828 60 216 3.5 6.1 0.00 0.18 0.18 98 1002.0
20260506215324 60 231 1.7 1.7 0.00 0.18 0.18 98 1002.0
20260506214820 60 169 1.7 2.6 0.00 0.18 0.18 98 1001.9
20260506214317 60 213 3.5 5.2 0.00 0.18 0.18 98 1002.1
20260506213815 60 101 2.6 4.3 0.00 0.18 0.18 98 1002.1
20260506213312 60 202 0.0 0.0 0.07 0.18 0.18 98 1002.1
20260506212810 60 193 0.0 0.0 0.07 0.18 0.18 98 1002.0
20260506212306 60 185 2.6 4.3 0.00 0.17 0.17 97 1002.4
20260506211800 60 215 2.6 2.6 0.00 0.17 0.17 97 1002.4
20260506211257 60 205 0.9 1.7 0.07 0.17 0.17 97 1002.2
20260506210754 61 197 1.7 2.6 0.12 0.17 0.17 97 1002.6
20260506210251 61 215 1.7 1.7 0.17 0.16 0.16 97 1002.5
20260506205748 61 187 1.7 2.6 0.12 0.15 0.15 97 1002.6
20260506205244 61 176 2.6 2.6 0.12 0.14 0.14 97 1002.3
20260506204741 61 203 0.0 0.0 0.12 0.13 0.13 97 1002.5
20260506204238 61 208 1.7 1.7 0.12 0.12 0.12 96 1002.6
20260506203736 61 215 0.9 0.9 0.07 0.11 0.11 96 1002.5
20260506203233 61 161 1.7 1.7 0.12 0.11 0.11 96 1002.4
20260506202730 61 196 0.9 0.9 0.12 0.10 0.10 96 1002.3
20260506202226 62 210 0.0 0.9 0.12 0.09 0.09 96 1002.5
20260506201724 62 198 1.7 1.7 0.12 0.08 0.08 95 1002.3
20260506201220 62 219 0.0 0.9 0.14 0.07 0.07 95 1002.4
20260506200717 62 213 0.0 0.9 0.07 0.06 0.06 95 1002.6
20260506200214 62 195 0.9 0.9 0.00 0.05 0.05 95 1002.4
20260506195710 62 231 0.9 1.7 0.00 0.05 0.05 94 1002.6
20260506195207 62 197 0.0 0.0 0.05 0.05 0.05 94 1002.3
20260506194704 63 207 0.9 0.9 0.07 0.04 0.04 93 1002.4
20260506194200 63 206 0.9 0.9 0.07 0.04 0.04 92 1002.3
20260506193658 63 187 0.0 0.9 0.07 0.04 0.04 91 1002.6
20260506193155 64 250 2.6 4.3 0.05 0.03 0.03 89 1002.3
20260506192652 65 199 0.9 0.9 0.07 0.02 0.02 87 1002.3
20260506192148 66 204 0.9 0.9 0.07 0.02 0.02 85 1002.5
20260506191645 67 219 0.0 0.9 0.00 0.01 0.01 81 1002.6
20260506191141 67 229 0.9 1.7 0.05 0.01 0.01 79 1002.5
20260506190639 68 195 1.7 1.7 0.05 0.01 0.01 77 1002.6
20260506190135 68 219 0.9 1.7 0.00 0.00 0.00 76 1002.6
20260506185632 69 246 4.3 7.8 0.00 0.00 0.00 73 1002.5
20260506185128 70 206 0.0 0.9 0.00 0.00 0.00 72 1002.7
20260506184626 70 196 0.9 1.7 0.00 0.00 0.00 68 1002.6
20260506184123 70 202 0.9 0.9 0.00 0.00 0.00 68 1002.4
20260506183620 70 228 2.6 2.6 0.00 0.00 0.00 67 1002.3
20260506183115 71 261 4.3 5.2 0.00 0.00 0.00 66 1002.4
20260506182614 71 240 2.6 4.3 0.00 0.00 0.00 66 1002.7
20260506182110 70 214 1.7 2.6 0.00 0.00 0.00 66 1002.5
20260506181608 71 224 2.6 4.3 0.00 0.00 0.00 66 1002.6
20260506181105 72 225 3.5 5.2 0.00 0.00 0.00 63 1002.5
20260506180602 72 130 0.9 1.7 0.00 0.00 0.00 60 1002.6
20260506180058 73 216 1.7 1.7 0.00 0.00 0.00 60 1002.6
20260506175554 73 199 1.7 4.3 0.00 0.00 0.00 61 1002.4
20260506175051 73 265 0.9 1.7 0.00 0.00 0.00 62 1002.8
20260506174550 73 217 3.5 5.2 0.00 0.00 0.00 61 1002.7
20260506174045 73 226 1.7 2.6 0.00 0.00 0.00 61 1002.5
20260506173543 74 155 7.0 9.6 0.00 0.00 0.00 60 1002.5
20260506173040 75 191 0.9 1.7 0.00 0.00 0.00 58 1002.7
20260506172537 75 200 1.7 1.7 0.00 0.00 0.00 58 1002.5
20260506172033 74 177 3.5 4.3 0.00 0.00 0.00 58 1002.8
20260506171531 75 235 3.5 4.3 0.00 0.00 0.00 57 1002.7
20260506171028 74 232 3.5 5.2 0.00 0.00 0.00 59 1002.8
20260506170526 74 131 1.7 1.7 0.00 0.00 0.00 59 1002.9
20260506170024 73 244 4.3 6.1 0.00 0.00 0.00 60 1003.1
20260506165522 72 202 0.0 0.9 0.00 0.00 0.00 61 1003.2
20260506165017 72 55 4.3 7.8 0.00 0.00 0.00 61 1003.2
20260506164514 72 198 0.9 1.7 0.00 0.00 0.00 61 1003.4
20260506164012 73 240 6.1 7.0 0.00 0.00 0.00 61 1003.5
20260506163508 73 220 3.5 4.3 0.00 0.00 0.00 61 1003.3
20260506163004 73 185 0.0 0.0 0.00 0.00 0.00 62 1003.4
20260506162500 73 240 4.3 8.7 0.00 0.00 0.00 62 1003.5
20260506161957 73 200 2.6 4.3 0.00 0.00 0.00 63 1003.6
20260506161455 73 201 3.5 6.1 0.00 0.00 0.00 63 1003.8
20260506160952 73 229 2.6 2.6 0.00 0.00 0.00 64 1003.8
20260506160449 73 259 1.7 1.7 0.00 0.00 0.00 63 1003.9
20260506155946 73 152 0.9 0.9 0.00 0.00 0.00 64 1004.0
20260506155444 72 190 0.0 0.9 0.00 0.00 0.00 65 1004.1
20260506153610 71 215 1.7 2.6 0.00 0.00 0.00 65 1004.7
20260506153108 71 202 3.5 6.1 0.00 0.00 0.00 65 1004.4
20260506152605 71 227 4.3 7.0 0.00 0.00 0.00 66 1004.9
20260506152103 72 220 2.6 4.3 0.00 0.00 0.00 66 1004.9
20260506151601 72 110 0.9 1.7 0.00 0.00 0.00 67 1004.8
20260506151057 72 201 0.9 1.7 0.00 0.00 0.00 67 1004.6
20260506150554 71 180 3.5 5.2 0.00 0.00 0.00 67 1004.5
20260506150051 71 199 0.0 0.9 0.00 0.00 0.00 68 1004.9
20260506145547 71 205 2.6 2.6 0.00 0.00 0.00 68 1005.0
20260506145045 70 238 1.7 1.7 0.00 0.00 0.00 70 1004.8
20260506144542 70 190 3.5 5.2 0.00 0.00 0.00 70 1004.5
20260506144039 69 222 1.7 1.7 0.00 0.00 0.00 71 1004.9
20260506143537 70 234 3.5 5.2 0.00 0.00 0.00 70 1004.9
20260506143035 69 240 0.0 1.7 0.00 0.00 0.00 71 1004.7
20260506142532 69 264 2.6 4.3 0.00 0.00 0.00 71 1004.6
20260506142030 70 90 3.5 6.1 0.00 0.00 0.00 70 1004.5
20260506141528 70 192 0.0 0.9 0.00 0.00 0.00 71 1004.5
20260506141026 69 217 0.9 1.7 0.00 0.00 0.00 71 1004.6
20260506140523 69 221 1.7 1.7 0.00 0.00 0.00 72 1004.6
20260506140020 69 198 1.7 1.7 0.00 0.00 0.00 72 1004.7
20260506135517 68 218 0.9 0.9 0.00 0.00 0.00 74 1004.9
20260506135013 67 210 1.7 1.7 0.00 0.00 0.00 74 1005.0
20260506134509 67 236 0.9 1.7 0.00 0.00 0.00 75 1005.0
20260506134006 68 221 3.5 5.2 0.00 0.00 0.00 74 1005.0
20260506133503 67 239 0.9 1.7 0.00 0.00 0.00 75 1005.2
20260506133000 66 173 1.7 2.6 0.00 0.00 0.00 76 1005.1
20260506132457 66 190 1.7 2.6 0.00 0.00 0.00 76 1005.3
20260506131954 66 219 0.9 1.7 0.00 0.00 0.00 76 1005.3
20260506131451 66 198 1.7 1.7 0.00 0.00 0.00 76 1005.3
20260506130948 66 214 1.7 1.7 0.00 0.00 0.00 76 1005.0
20260506130444 66 267 2.6 4.3 0.00 0.00 0.00 76 1005.3
20260506125942 66 196 3.5 5.2 0.00 0.00 0.00 76 1005.5
20260506125440 66 208 1.7 1.7 0.00 0.00 0.00 76 1004.9
20260506124938 66 105 1.7 1.7 0.00 0.00 0.00 76 1005.4
20260506124435 66 190 0.0 0.9 0.00 0.00 0.00 77 1005.1
20260506123933 66 229 2.6 4.3 0.00 0.00 0.00 76 1005.2
20260506123431 66 120 1.7 2.6 0.00 0.00 0.00 77 1005.3
20260506122928 66 209 4.3 6.1 0.00 0.00 0.00 77 1005.5
20260506122425 66 190 1.7 1.7 0.00 0.00 0.00 77 1005.3
20260506121924 66 222 0.9 1.7 0.00 0.00 0.00 76 1005.4
20260506121420 65 257 0.9 0.9 0.00 0.00 0.00 77 1005.3
20260506120917 64 202 0.0 0.9 0.00 0.00 0.00 79 1005.4
20260506120414 64 197 1.7 1.7 0.00 0.00 0.00 79 1005.3
20260506115911 64 201 1.7 1.7 0.00 0.00 0.00 79 1005.8
20260506115409 64 247 2.6 2.6 0.00 0.00 0.00 79 1005.6
20260506114908 64 207 0.9 0.9 0.00 0.00 0.00 80 1005.3
20260506114405 64 228 3.5 4.3 0.00 0.00 0.00 79 1005.6
20260506113904 63 171 0.9 0.9 0.00 0.00 0.00 80 1005.5
20260506113400 63 203 0.9 0.9 0.00 0.00 0.00 80 1005.9
20260506112856 63 308 3.5 4.3 0.00 0.00 0.00 80 1005.8
20260506112354 63 215 0.9 0.9 0.00 0.00 0.00 80 1005.6
20260506111851 63 217 0.9 0.9 0.00 0.00 0.00 80 1005.5
20260506111350 63 198 0.0 0.0 0.00 0.00 0.00 80 1005.7
20260506110847 63 208 2.6 4.3 0.00 0.00 0.00 81 1005.5
20260506110344 62 191 0.0 0.0 0.00 0.00 0.00 81 1005.7
20260506105841 62 190 0.9 1.7 0.00 0.00 0.00 82 1005.8